Location: ???????
(54.6339°N, 39.4245°E)
Time: 12:01:20
(UTC+00:00)

NOSS 2-3 (C) - Pass Details

Date: 19 May 2025
Orbit: 469 x 1713 km, 63.3° (Epoch: 13 June)

Event Time Altitude Azimuth Distance (km) Brightness Sun altitude
Rises 18:24:53 0° 246° (WSW) 2,513 6.9 -6.7°
Reaches altitude 10° 18:26:55 10° 252° (WSW) 1,668 6.1 -6.9°
Maximum altitude 18:30:27 51° 330° (NNW) 672 4.3 -7.2°
Drops below altitude 10° 18:34:40 10° 47° (NE) 1,991 6.2 -7.6°
Sets 18:37:18 0° 52° (NE) 3,070 7.1 -7.8°
